DMSP 5D-2 F13 DEB, 42308

Orbit data source: Space-Track

DMSP 5D-2 F13 DEB, 42308 is space debris in SSO originally from a launch on Fri, 24 Mar 1995 UTC launched from the Air Force Western Test Range (AFWTR). Debris objects in space refer to the collection of defunct objects orbiting the Earth. Examples of debris include non-operational satellites, rocket bodies, and fragments generated from explosions, collisions, or faulty payload assembly.

Loading next visibility...
Identifier
42308, 1995-015JA
Orbit
SSO
Country
Flag of USUS
Related business
Manufacturer
Unknown
Mission
Spacecraft
Bus & Motor
Unknown
Mass
Unknown
Launch date (UTC)
1995-03-24 (31 years ago)
Launch vehicle
Unknown
Launch site
Air Force Western Test Range (AFWTR)
Object type
Payload
Rocket body
Debris
Shape & HBR
Unknown shape, 0.1 m
Radar Cross Section
Small (<0.1 m²)

Expand to show TLE details & history
Last TLE update: 19 hours ago

TLE from 19 hours ago
0 DMSP 5D-2 F13 DEB
1 42308U 95015JA  25287.80610915  .00015917  00000-0  38929-2 0  9997
2 42308  98.8692 322.0771 0016676 233.3608 126.6053 14.52526501542122
Epoch: 2025-10-14T19:20Z
TLE epoch observation values (Epoch: 2025-10-14T19:20:47.830Z)
Latitude
-0.00003°
Longitude
8.28856°
Altitude
727.432 km
Speed
7.488 km/s
True Right ascension
21h 28m 18s
True Declination
0° 00' 00"
Sunlit
Object was in full shadow at epoch
Visualization orbit readout
Latitude
Unknown
Longitude
Unknown
Altitude
Unknown
Speed
Unknown
Apparent Right ascension
Unknown
Apparent Declination
Unknown
Sunlit
N/A
Visualization observer readout
Local Sidereal Time
09:09:03
Azimuth
Unknown
Elevation
Unknown
Doppler factor
Unknown
Orbital elements
Apogee altitude
726.359 km
Perigee altitude
702.704 km
Semi-major axis
7,092.669 km
Eccentricity
0.00167
Inclination
98.8692°
RAAN
322.0771°
Arg. of periapsis
233.3608°
True anomaly
126.75851°
Mean anomaly
126.6053°
Eccentric anomaly
126.68192°
Mean motion
3.63353 °/min
Orbital period
99.08 mins
BSTAR
0.0038929

Documentation

Showing up to 5 results
|